Location: Cazavet
(43.0017°N, 1.0431°E)
Time: 21:50:48
(UTC+00:00)

Cosmos 540 Rocket - Pass Details

Date: 18 January 2026
Orbit: 736 x 747 km, 74.1° (Epoch: 10 February)

Event Time Altitude Azimuth Distance (km) Brightness Sun altitude
Exits shadow 06:20:16 - 337° (NNW) 2,931 6.1 -11.4°
Reaches altitude 10° 06:22:01 10° 336° (NNW) 2,250 5.5 -11.1°
Maximum altitude 06:27:05 72° 253° (WSW) 779 3.4 -10.2°
Drops below altitude 10° 06:32:07 10° 170° (S) 2,238 6.3 -9.3°
Sets 06:34:28 0° 168° (SSE) 3,158 7.2 -8.9°
